DateTimeUTC,F1_A11,F1_S11,BsB_S11,BsG_S11,BsR_S11,BbsB_S11,BbsG_S11,BbsR_S11,BaB_A11,BaG_A11,BaR_A11,Tu_S11,T_S11,Uu_S11,U_S11,P_S11,T1_A11
2021-05-07T15:00:00Z,00000200,21000000,,,,,,,-000.05,-000.14,-000.10,20.1,26.4,00.3,00.2,0673.9,31.2
2021-05-07T15:01:00Z,00000200,21000000,,,,,,,0000.39,0000.37,0000.40,20.1,26.4,00.2,00.1,0673.9,31.2
2021-05-07T15:02:00Z,00000200,21000000,,,,,,,-000.26,-000.35,0000.15,20.1,26.4,00.3,00.2,0673.9,31.2
2021-05-07T15:03:00Z,00000200,61000000,,,,,,,0008.03,0007.08,0005.23,20.1,26.4,00.3,00.2,0673.9,31.1
2021-05-07T15:04:00Z,00000200,41000000,0002.18,0000.57,0000.48,0000.80,0000.10,0000.37,0009.77,0008.75,0006.31,20.2,26.3,00.3,00.2,0674.8,31.2
2021-05-07T15:05:00Z,00000200,01000000,0001.70,0000.82,0000.41,0000.91,0000.16,0000.26,0009.18,0008.90,0006.68,20.2,26.2,00.4,00.3,0674.9,31.1
2021-05-07T15:06:00Z,00000200,01000000,0000.83,0000.81,0000.18,0001.04,0000.08,0000.09,0008.66,0007.76,0005.99,20.2,26.2,00.3,00.2,0674.9,31.2
2021-05-07T15:07:00Z,00000200,01000000,0001.39,0000.87,0000.11,0000.48,0000.14,-000.02,0008.59,0007.38,0005.63,20.3,26.2,00.4,00.3,0674.9,31.2
2021-05-07T15:08:00Z,00000200,01000000,0001.17,0000.78,0000.48,0000.63,0000.53,-000.07,0007.48,0006.80,0005.29,20.3,26.2,00.4,00.3,0674.9,31.2
2021-05-07T15:09:00Z,00000200,01000000,0001.62,0000.65,0000.25,0000.81,0000.17,0000.11,0006.83,0006.33,0004.35,20.3,26.2,00.3,00.2,0674.9,31.2
2021-05-07T15:10:00Z,00000200,01000000,0001.64,0000.51,0000.47,0000.79,0000.47,0000.13,0005.43,0004.78,0003.96,20.2,26.2,00.4,00.3,0674.9,31.2
2021-05-07T15:11:00Z,00000200,01000000,0001.34,0000.69,0000.27,0000.28,0000.31,0000.31,0005.49,0005.25,0003.59,20.3,26.2,00.5,00.3,0674.9,31.2
2021-05-07T15:12:00Z,00000200,01000000,0000.41,0000.79,0000.25,0000.11,0000.30,0000.10,0005.04,0004.65,0003.91,20.3,26.2,00.5,00.4,0674.9,31.2
2021-05-07T15:13:00Z,00000200,01000000,0000.14,0000.60,0000.10,0001.11,0000.29,0000.36,0004.53,0003.74,0002.91,20.3,26.2,00.5,00.3,0674.9,31.2
2021-05-07T15:14:00Z,00000200,01000000,0000.71,0000.46,-000.02,0000.41,0000.22,0000.07,0003.82,0003.49,0002.88,20.3,26.2,00.4,00.3,0674.9,31.2
2021-05-07T15:15:00Z,00000200,01000000,0001.67,0000.43,-000.04,0000.53,0000.12,-000.02,0004.60,0003.68,0002.65,20.3,26.2,00.5,00.3,0674.9,31.2
2021-05-07T15:16:00Z,00000200,01000000,0000.74,0000.73,0000.04,0000.55,0000.19,0000.28,0003.32,0003.52,0002.38,20.3,26.2,00.4,00.3,0674.9,31.1
2021-05-07T15:17:00Z,00000200,01000000,0001.09,0000.31,0000.12,0000.57,0000.27,0000.19,0002.98,0002.83,0001.92,20.3,26.2,00.5,00.3,0674.9,31.2
2021-05-07T15:18:00Z,00000200,01000000,0001.19,0000.78,0000.47,0001.26,0000.17,0000.55,0003.10,0002.83,0002.41,20.3,26.3,00.4,00.3,0674.9,31.2
2021-05-07T15:19:00Z,00000200,01000000,0000.92,0000.48,-000.13,0001.02,-000.09,-000.08,0003.23,0002.64,0002.28,20.3,26.3,00.5,00.3,0674.9,31.2
2021-05-07T15:20:00Z,00000200,01000000,0001.02,0000.51,0000.04,0001.20,0000.08,0000.11,0002.31,0002.37,0001.30,20.3,26.3,00.4,00.3,0674.9,31.2
2021-05-07T15:21:00Z,00000200,01000000,0000.98,0000.64,0000.31,0001.36,-000.02,0000.28,0003.14,0002.23,0002.33,20.3,26.3,00.4,00.3,0674.9,31.2
2021-05-07T15:22:00Z,00000200,01000000,0000.54,0000.78,0000.40,0000.65,0000.17,0000.20,0002.21,0001.89,0001.31,20.3,26.3,00.4,00.3,0674.9,31.2
2021-05-07T15:23:00Z,00000200,01000000,0001.14,0000.57,0000.21,0000.19,0000.09,0000.28,0001.97,0002.46,0001.37,20.4,26.3,00.4,00.3,0674.9,31.2
2021-05-07T15:24:00Z,00000200,01000000,0001.61,0000.49,0000.22,0000.33,0000.39,0000.35,0001.57,0000.91,0000.94,20.4,26.3,00.5,00.3,0674.8,31.2
2021-05-07T15:25:00Z,00000200,01000000,0001.30,0000.76,0000.40,0000.43,0000.40,-000.12,0001.84,0001.71,0001.36,20.4,26.3,00.4,00.2,0674.8,31.2
2021-05-07T15:26:00Z,00000200,01000000,0000.90,0000.90,0000.56,0000.71,0000.35,0000.16,0001.92,0001.76,0000.98,20.4,26.3,00.5,00.3,0674.8,31.1
2021-05-07T15:27:00Z,00000200,01000000,0001.53,0000.64,-000.11,0000.67,0000.29,0000.07,0001.56,0001.26,0001.27,20.4,26.3,00.5,00.3,0674.8,31.1
2021-05-07T15:28:00Z,00000200,01000000,0001.08,0000.40,0000.16,0000.30,0000.20,0000.23,0001.27,0001.36,0000.57,20.3,26.3,00.6,00.4,0674.8,31.1
2021-05-07T15:29:00Z,00000200,01000000,0001.52,0000.86,0000.44,0000.76,0000.34,0000.31,0001.71,0001.19,0001.17,20.4,26.3,00.5,00.3,0674.8,31.1
2021-05-07T15:30:00Z,00000200,01000000,0001.21,0000.71,0000.29,0000.86,0000.11,0000.02,0001.52,0001.53,0001.23,20.3,26.3,00.5,00.4,0674.8,31.1
2021-05-07T15:31:00Z,00000200,01000000,0001.28,0000.86,0000.08,0000.67,0000.25,-000.04,0001.33,0001.15,0000.88,20.4,26.3,00.5,00.3,0674.8,31.1
2021-05-07T15:32:00Z,00000200,01000000,0000.97,0000.43,0000.10,0000.28,0000.27,0000.26,0001.10,0001.35,0000.71,20.3,26.3,00.5,00.3,0674.8,31.1
2021-05-07T15:33:00Z,00000200,01000000,0001.50,0000.25,0000.17,0000.68,0000.13,0000.09,0000.96,0000.76,0000.73,20.4,26.3,00.5,00.3,0674.8,31.1
2021-05-07T15:34:00Z,00000200,01000000,0001.75,0000.62,0000.18,0000.55,0000.23,-000.05,0001.57,0001.50,0001.06,20.4,26.3,00.4,00.3,0674.8,31.1
2021-05-07T15:35:00Z,00000200,01000000,0001.85,0000.65,-000.17,0000.60,0000.15,0000.14,0001.10,0000.88,0000.83,20.4,26.3,00.4,00.3,0674.8,31.1
2021-05-07T15:36:00Z,00000200,01000000,0001.26,0000.64,0000.15,0000.56,0000.14,0000.16,0001.77,0001.37,0001.17,20.4,26.3,00.4,00.3,0674.8,31.1
2021-05-07T15:37:00Z,00000200,01000000,0000.88,0000.23,0000.13,0000.61,0000.10,0000.00,0001.87,0001.68,0000.94,20.4,26.3,00.5,00.4,0674.8,31.1
2021-05-07T15:38:00Z,00000200,01000000,0001.38,0000.58,0000.08,0000.81,0000.29,0000.28,0001.33,0001.04,0001.17,20.4,26.4,00.5,00.4,0674.8,31.2
2021-05-07T15:39:00Z,00000200,01000000,0001.44,0000.88,0000.04,0000.88,0000.28,0000.11,0001.56,0001.58,0000.70,20.4,26.4,00.5,00.4,0674.8,31.2
2021-05-07T15:40:00Z,00000200,01000000,0001.72,0000.86,0000.30,0000.82,0000.07,0000.17,0001.06,0001.04,0000.93,20.4,26.4,00.4,00.3,0674.8,31.2
2021-05-07T15:41:00Z,00000200,01000000,0001.53,0000.92,-000.06,0001.03,0000.21,-000.20,0001.83,0001.55,0001.00,20.4,26.4,00.5,00.3,0674.8,31.1
2021-05-07T15:42:00Z,00000200,01000000,0000.88,0000.99,0000.40,0000.50,0000.20,0000.23,0001.71,0001.62,0001.64,20.4,26.4,00.5,00.4,0674.9,31.1
2021-05-07T15:43:00Z,00000200,01000000,0000.65,0000.85,-000.01,0000.50,0000.29,0000.26,0002.01,0001.78,0001.00,20.4,26.4,00.7,00.5,0674.8,31.2
2021-05-07T15:44:00Z,00000200,01000000,0000.93,0000.50,0000.20,0000.63,0000.21,0000.34,0001.56,0001.23,0001.25,20.4,26.4,00.5,00.3,0674.8,31.1
2021-05-07T15:45:00Z,00000200,01000000,0001.64,0000.75,0000.34,0000.59,0000.21,0000.22,0001.60,0001.97,0001.04,20.5,26.4,00.5,00.3,0674.9,31.2
2021-05-07T15:46:00Z,00000200,01000000,0001.13,0000.70,0000.56,0000.94,0000.18,0000.20,0002.39,0001.55,0001.39,20.5,26.4,00.5,00.3,0674.8,31.2
2021-05-07T15:47:00Z,00000200,01000000,0001.49,0000.51,0000.63,0000.63,0000.35,0000.07,0001.61,0001.45,0001.35,20.5,26.4,00.5,00.4,0674.8,31.1
2021-05-07T15:48:00Z,00000200,01000000,0001.22,0000.93,0000.31,0000.67,0000.51,-000.05,0001.84,0001.87,0000.80,20.5,26.4,00.4,00.3,0674.8,31.1
2021-05-07T15:49:00Z,00000200,01000000,0001.33,0000.71,0000.29,-000.07,0000.18,-000.13,0002.02,0001.65,0001.69,20.4,26.4,00.5,00.3,0674.8,31.1
2021-05-07T15:50:00Z,00000200,01000000,0001.64,0000.72,0000.34,0000.35,0000.25,-000.06,0001.56,0001.55,0000.85,20.4,26.4,00.5,00.3,0674.8,31.1
2021-05-07T15:51:00Z,00000200,01000000,0000.92,0001.00,0000.47,0001.03,0000.09,-000.09,0001.48,0001.29,0000.81,20.4,26.4,00.6,00.4,0674.8,31.1
2021-05-07T15:52:00Z,00000200,01000000,0000.93,0001.08,0000.32,0000.84,0000.23,0000.02,0002.28,0002.02,0001.75,20.4,26.4,00.6,00.4,0674.8,31.1
2021-05-07T15:53:00Z,00000200,01000000,0001.29,0000.74,0000.33,0000.69,0000.14,0000.15,0000.62,0000.50,0000.30,20.4,26.4,00.7,00.5,0674.8,31.1
2021-05-07T15:54:00Z,00000200,01000000,0001.24,0000.67,0000.18,0000.44,0000.00,0000.36,0001.05,0000.96,0000.93,20.3,26.3,00.6,00.4,0674.8,31.0
2021-05-07T15:55:00Z,00000200,01000000,0001.35,0000.70,0000.45,0001.13,0000.42,0000.25,0000.82,0000.93,0000.41,20.1,26.1,00.6,00.4,0674.8,30.9
2021-05-07T15:56:00Z,00000200,01000000,0000.87,0000.65,0000.66,0000.69,0000.53,0000.10,0001.90,0001.57,0001.41,19.9,26.0,00.6,00.4,0674.8,30.9
2021-05-07T15:57:00Z,00000200,41000000,,,,,,,0000.57,0000.42,0000.19,19.9,26.0,00.6,00.4,0674.9,30.9
2021-05-07T15:58:00Z,00000200,61000000,,,,,,,0000.29,-000.03,0000.14,19.6,26.0,00.4,00.3,0673.8,30.9
2021-05-07T15:59:00Z,00000200,21000000,,,,,,,0000.00,-000.01,-000.03,19.6,26.1,00.3,00.2,0673.8,31.0
